Lid_Strength_Index
5 7 7 8 12 13 15 13 11 10 9 7 6 7 8 8 10 12 2 1 -0 -0 -1 -1 -2 -2 -2 -2 -2 -2 -2 -2 -2 -2 -2 -2 -2 -2 -2 -2 -3 -2 -2 -2 -2 -2 -2 -2 -2
5 6 7 10 14 16 15 12 10 9 8 6 6 6 8 9 5 4 3 0 -0 -0 -1 -1 -1 -2 -2 -2 -2 -2 -2 -2 -2 -2 -2 -2 -2 -2 -2 -2 -2 -2 -2 -2 -2 -2 -2 -2 -2
6 7 10 11 14 15 15 11 10 8 6 7 7 5 7 8 5 4 1 -0 -0 -0 -1 -1 -1 -2 -2 -2 -2 -2 -2 -2 -2 -2 -2 -2 -2 -2 -2 -2 -2 -2 -2 -2 -2 -2 -2 -2 -2
8 9 10 14 14 13 13 10 9 9 7 5 6 9 5 3 4 2 0 -0 0 -0 -1 -1 -2 -2 -2 -2 -2 -2 -2 -3 -3 -2 -2 -2 -2 -2 -2 -2 -2 -2 -2 -2 -2 -2 -2 -2 -2
9 10 13 13 13 13 13 10 9 9 8 7 6 9 8 4 2 1 0 0 1 0 -0 -1 -1 -2 -2 -2 -2 -2 -2 -2 -2 -2 -2 -2 -2 -2 -2 -2 -2 -2 -2 -2 -2 -2 -2 -2 -2
10 10 14 15 13 13 12 10 10 9 7 7 7 8 8 3 2 1 0 1 0 0 -0 -1 0 -1 -1 -2 -2 -2 -2 -2 -2 -2 -2 -1 -2 -2 -2 -2 -2 -2 -2 -2 -2 -2 -2 -2 -2
10 11 13 15 14 14 11 9 10 9 7 7 5 9 7 4 1 1 1 0 0 -0 -0 -0 -0 0 0 -1 -1 -2 -2 -2 -2 -2 -2 -2 -2 -2 -2 -2 -2 -2 -2 -2 -2 -2 -2 -2 -2
10 11 12 14 14 13 10 10 10 8 8 5 5 9 8 4 1 1 0 0 0 0 -0 0 0 -0 -0 -0 0 -0 -1 -1 -2 -2 -1 -1 -2 -2 -2 -1 -2 -2 -2 -2 -2 -2 -2 -2 -1
8 13 13 12 12 12 10 11 10 8 7 6 5 6 4 2 1 2 2 1 1 0 1 0 0 0 0 0 1 1 0 -0 -1 0 1 1 -0 -0 -1 -1 -2 -2 -2 -2 -2 -1 -1 -1 -1
8 13 12 10 13 12 10 11 10 10 9 8 7 4 3 3 3 3 3 3 2 2 1 1 1 1 0 -1 0 1 0 0 0 1 1 1 0 -0 -1 0 -1 -2 -2 -2 -2 -1 -1 -0 1
11 11 9 10 11 11 11 12 10 10 11 8 8 6 4 4 3 3 3 3 2 3 1 1 0 0 1 1 0 1 0 1 0 1 1 2 2 1 1 1 1 1 1 1 0 0 1 1 1
12 9 9 9 10 10 11 11 12 11 11 9 5 4 4 4 4 3 3 3 3 3 2 1 0 1 1 0 1 1 1 1 1 1 2 3 1 2 2 3 2 2 2 2 1 1 1 1 1
10 10 8 10 10 11 10 12 12 12 11 7 4 4 4 4 4 3 2 2 2 3 2 2 0 1 1 1 2 2 2 1 1 1 1 1 1 2 1 1 1 1 1 1 2 1 1 1 1
9 9 9 10 11 10 11 12 12 11 11 6 5 5 5 4 4 3 3 3 2 2 2 2 1 0 2 2 2 2 2 2 2 2 1 1 1 1 1 1 1 1 1 1 1 1 1 1 0
9 11 10 11 11 11 11 12 12 10 10 7 6 5 5 4 3 3 3 2 2 2 1 2 2 1 1 2 2 3 2 2 2 1 1 1 1 1 1 1 2 1 1 1 1 1 1 1 0
11 11 14 10 11 10 10 13 10 10 11 10 8 7 5 4 4 3 3 2 2 2 2 1 1 2 1 2 2 3 3 2 1 0 0 0 0 1 2 2 2 0 1 1 2 2 1 1 1
11 14 12 10 9 11 11 13 10 9 10 11 11 8 6 5 4 3 3 3 2 2 2 2 1 2 2 1 2 2 2 2 1 0 1 1 0 0 1 1 1 0 1 2 2 3 1 1 1
16 14 12 12 10 11 13 13 10 11 12 12 12 11 6 6 5 3 2 3 2 2 2 2 1 2 2 1 2 2 2 1 1 1 1 1 0 1 1 2 1 1 2 2 2 2 1 1 1
11 13 13 11 9 11 11 12 11 10 11 12 11 11 7 6 4 3 3 3 3 2 3 2 2 1 1 2 3 3 2 2 2 1 1 1 1 1 1 1 1 2 1 1 1 1 1 1 1
11 13 13 10 10 10 12 12 11 9 9 11 11 11 10 6 6 4 4 3 4 3 3 3 2 2 1 1 1 2 2 2 1 1 0 1 1 1 1 1 1 1 1 1 2 1 2 1 2
12 13 13 13 12 11 13 14 12 9 9 9 9 10 9 9 5 5 4 4 3 4 4 4 1 1 1 0 1 3 2 2 2 1 1 1 1 1 1 1 1 1 1 1 1 2 2 2 2
14 10 11 11 13 17 13 18 13 10 9 9 9 10 10 9 7 4 4 4 3 3 3 4 4 2 1 1 1 2 2 3 1 1 0 1 1 1 1 0 0 1 1 1 1 0 1 2 3
13 10 11 11 13 16 15 17 14 11 11 10 8 9 10 10 9 7 4 3 3 2 3 2 4 4 3 2 1 1 2 1 1 1 1 1 1 1 1 1 1 1 1 1 2 2 2 2 3
9 11 11 12 13 19 15 16 16 13 10 9 9 7 8 9 10 8 5 3 3 2 2 3 3 4 4 3 2 1 2 2 2 2 2 1 1 1 2 1 1 1 1 2 2 2 2 3 3
10 13 19 20 20 20 14 16 14 11 9 9 9 9 8 9 10 9 8 6 4 3 3 2 3 3 4 4 3 3 2 1 2 1 1 2 2 3 2 2 2 2 2 3 3 4 4 4 5
12 13 18 22 21 19 17 18 14 9 7 8 8 8 10 11 9 9 9 7 4 3 3 3 3 3 3 3 4 3 2 1 1 1 1 2 2 2 2 2 1 2 3 4 5 6 7 8 7
13 15 12 17 22 20 17 16 12 11 10 11 11 11 11 11 11 9 9 8 6 4 4 3 3 2 3 2 2 3 2 2 1 1 1 1 2 2 5 4 3 4 4 5 6 7 9 10 10
11 9 16 16 21 22 19 18 16 14 11 11 11 11 12 12 12 11 11 10 9 6 5 4 3 3 3 2 2 2 2 2 1 1 2 2 2 3 5 5 4 5 6 7 7 10 11 11 11
13 13 13 13 16 19 21 18 13 13 10 11 12 12 12 12 12 11 11 11 11 11 10 8 6 5 4 4 3 3 3 2 2 2 2 2 3 4 5 5 5 7 8 9 10 11 12 11 12
11 12 12 16 18 16 18 18 13 13 12 13 12 12 12 11 11 10 10 10 11 10 10 10 10 9 7 6 5 5 4 5 4 3 2 3 4 6 6 7 7 8 8 10 10 12 11 12 13